This demonstration page uses our WeatherBlox Daily Observations layout. Learn more.

Left ArrowRight Arrow

Hourly Observations for September 3, 2021

Temp ( °F °C ) Dew Point ( °F °C ) Humidity (%) Winds ( mph kmh ) Pressure ( in mb ) Visibility ( mi km ) Precip ( " mm )
12:04 am 00:04 Partly Cloudy with Thunderstorms 73 22.8 70 21.1 90 90 S 10 17 29.82 1010 8 13 0.00 0.00
12:15 am 00:15 Partly Cloudy with Nearby Thunderstorms 73 22.8 71 21.7 94 94 SSW 7 11 29.83 1010 8 13 0.01 0.25
12:21 am 00:21 Mostly Cloudy with Nearby Thunderstorms 73 22.8 71 21.7 94 94 S 7 11 29.83 1010 9 14 0.01 0.25
12:25 am 00:25 Partly Cloudy with Nearby Thunderstorms 73 22.8 70 21.1 90 90 SSW 8 13 29.83 1010 9 14 0.01 0.25
12:29 am 00:29 Mostly Cloudy with Nearby Thunderstorms 73 22.8 71 21.7 94 94 SSW 6 9 29.84 1010 10 16 0.01 0.25
12:50 am 00:50 Cloudy with Thunderstorms 73 23 70 21 89 89 S 9 15 29.82 1010 10 16 0.01 0.25
12:54 am 00:54 Cloudy with Thunderstorms 73 22.8 70 21.1 90 90 SSW 9 15 29.85 1011 10 16 0.01 0.25
1:03 am 01:03 Cloudy with Light Rain 73 22.8 70 21.1 90 90 S 9 15 29.84 1010 10 16 0.00 0.00
1:09 am 01:09 Cloudy with Light Rain 73 22.8 70 21.1 90 90 SSW 8 13 29.84 1010 9 14 0.00 0.00
1:19 am 01:19 Cloudy with Light Rain 72 22.2 70 21.1 94 94 S 10 17 29.84 1010 7 11 0.00 0.00
1:30 am 01:30 Cloudy with Light Rain 72 22.2 70 21.1 94 94 SSE 7 11 29.84 1010 5 8 0.04 1.02
1:54 am 01:54 Cloudy with Light Rain 72 22.2 70 21.1 94 94 SSE 6 9 29.85 1011 10 16 0.04 1.02
2:10 am 02:10 Cloudy with Light Rain 72 22.2 70 21.1 94 94 S 5 7 29.84 1010 8 13 0.01 0.25
2:45 am 02:45 Mostly Cloudy 71 21.7 69 20.6 94 94 undefined N/A 29.83 1010 10 16 0.01 0.25
2:54 am 02:54 Mostly Cloudy 71 21.7 69 20.6 94 94 S 6 9 29.84 1011 10 16 0.01 0.25
3:02 am 03:02 Mostly Cloudy 71 21.7 69 20.6 94 94 S 6 9 29.84 1010 10 16 N/A
3:54 am 03:54 Cloudy 73 22.8 71 21.7 94 94 WSW 6 9 29.84 1011 10 16 N/A
4:03 am 04:03 Cloudy 73 22.8 70 21.1 90 90 WSW 9 15 29.83 1010 10 16 N/A
4:33 am 04:33 Cloudy 74 23.3 70 21.1 88 88 W 8 13 29.83 1010 10 16 N/A
4:54 am 04:54 Mostly Cloudy 73 22.8 69 20.6 87 87 WNW 9 15 29.86 1011 10 16 N/A
5:03 am 05:03 Cloudy 72 22.2 68 20 87 87 NW 8 13 29.85 1011 10 16 N/A
5:54 am 05:54 Mostly Cloudy 70 21.1 65 18.3 84 84 NW 8 13 29.87 1012 10 16 N/A
6:54 am 06:54 Clear 68 20 64 17.8 87 87 NNW 6 9 29.88 1012 10 16 N/A
7:54 am 07:54 Sunny 68 20 63 17.2 84 84 NW 8 13 29.90 1013 10 16 N/A
8:34 am 08:34 Mostly Cloudy 70 21.1 64 17.8 82 82 NW 7 11 29.90 1013 10 16 N/A
8:54 am 08:54 Cloudy 70 21.1 64 17.8 82 82 NW 7 11 29.92 1013 10 16 N/A
9:54 am 09:54 Mostly Cloudy 73 22.8 64 17.8 74 74 NW 16 26 29.92 1013 10 16 N/A
10:05 am 10:05 Mostly Cloudy 72 22.2 64 17.8 76 76 NW 13 20 29.92 1013 10 16 N/A
10:54 am 10:54 Cloudy 73 22.8 64 17.8 74 74 NNW 15 24 29.94 1014 10 16 N/A
11:54 am 11:54 Cloudy 73 22.8 64 17.8 74 74 WNW 12 19 29.95 1014 10 16 N/A
12:05 pm 12:05 Cloudy 74 23.3 65 18.3 74 74 NW 10 17 29.93 1014 10 16 N/A
12:54 pm 12:54 Cloudy 74 23.3 64 17.8 71 71 NW 12 19 29.95 1014 10 16 N/A
1:54 pm 13:54 Cloudy 74 23.3 64 17.8 71 71 NNW 13 20 29.94 1014 10 16 N/A
2:54 pm 14:54 Cloudy 75 23.9 64 17.8 69 69 NNW 12 19 29.94 1014 10 16 N/A
3:54 pm 15:54 Cloudy 76 24.4 64 17.8 67 67 NNW 8 13 29.93 1013 10 16 N/A
4:54 pm 16:54 Cloudy 75 23.9 64 17.8 69 69 N 7 11 29.91 1013 10 16 N/A
5:54 pm 17:54 Cloudy 74 23.3 65 18.3 74 74 N 10 17 29.91 1013 10 16 N/A
6:54 pm 18:54 Cloudy 73 22.8 64 17.8 74 74 N 9 15 29.92 1013 10 16 N/A
7:54 pm 19:54 Cloudy 72 22.2 64 17.8 76 76 NNW 6 9 29.93 1014 10 16 N/A
8:54 pm 20:54 Cloudy 72 22.2 65 18.3 79 79 WNW 5 7 29.96 1015 10 16 N/A
9:54 pm 21:54 Cloudy 70 21.1 66 18.9 87 87 N 5 7 29.96 1015 10 16 N/A
10:54 pm 22:54 Cloudy 70 21.1 64 17.8 82 82 N 8 13 29.96 1015 10 16 N/A
11:54 pm 23:54 Cloudy 69 20.6 63 17.2 81 81 N 6 9 29.96 1015 10 16 N/A

Powered by AerisWeather